W7DRM Weather Reports


time (UTC)temp
C
wind
direction
speed
KPH
gust
KPH
rain 1hr
cm
rain 24hr
cm
rain mn
cm
humidity
%
barometer
mb
20260509234104 27 256 9.7 16.1 0.00 0.00 0.00 14 1014.3
20260509233104 26 251 3.2 14.5 0.00 0.00 0.00 17 1014.3
20260509232104 26 198 6.4 12.9 0.00 0.00 0.00 17 1014.3
20260509230104 26 285 1.6 11.3 0.00 0.00 0.00 19 1014.5
20260509225104 27 277 4.8 12.9 0.00 0.00 0.00 18 1014.6
20260509223104 26 340 4.8 11.3 0.00 0.00 0.00 18 1014.9
20260509222104 26 232 4.8 12.9 0.00 0.00 0.00 18 1015.0
20260509221104 26 253 6.4 14.5 0.00 0.00 0.00 19 1015.1
20260509220104 26 240 3.2 11.3 0.00 0.00 0.00 20 1015.2
20260509215103 26 210 3.2 12.9 0.00 0.00 0.00 21 1015.3
20260509214103 26 252 8.0 12.9 0.00 0.00 0.00 19 1015.4
20260509213104 26 268 8.0 14.5 0.00 0.00 0.00 19 1015.5
20260509212103 26 251 3.2 8.0 0.00 0.00 0.00 21 1015.6
20260509211103 25 274 6.4 12.9 0.00 0.00 0.00 21 1015.8
20260509210104 25 22 4.8 9.7 0.00 0.00 0.00 23 1015.9
20260509203103 25 322 3.2 12.9 0.00 0.00 0.00 24 1016.0
20260509201103 23 295 4.8 11.3 0.00 0.00 0.00 24 1016.4
20260509200104 23 327 3.2 8.0 0.00 0.00 0.00 24 1016.4
20260509195104 23 310 6.4 11.3 0.00 0.00 0.00 25 1016.4
20260509194104 23 3 1.6 14.5 0.00 0.00 0.00 26 1016.5
20260509192104 23 341 1.6 11.3 0.00 0.00 0.00 28 1016.9
20260509191103 23 269 4.8 11.3 0.00 0.00 0.00 29 1017.0
20260509190103 23 261 3.2 8.0 0.00 0.00 0.00 29 1017.0
20260509185103 22 247 1.6 4.8 0.00 0.00 0.00 32 1017.1
20260509181104 22 213 4.8 9.7 0.00 0.00 0.00 32 1017.4
20260509175104 21 196 3.2 8.0 0.00 0.00 0.00 33 1017.5
20260509174103 21 239 1.6 8.0 0.00 0.00 0.00 37 1017.5
20260509173103 20 187 4.8 11.3 0.00 0.00 0.00 37 1017.5
20260509172104 20 260 3.2 8.0 0.00 0.00 0.00 37 1017.5
20260509171104 20 106 1.6 4.8 0.00 0.00 0.00 37 1017.6
20260509170104 20 158 1.6 9.7 0.00 0.00 0.00 37 1017.6
20260509165104 19 191 1.6 9.7 0.00 0.00 0.00 35 1017.6
20260509164104 18 254 1.6 11.3 0.00 0.00 0.00 38 1017.6
20260509163104 18 173 1.6 3.2 0.00 0.00 0.00 35 1017.6
20260509162104 18 262 1.6 4.8 0.00 0.00 0.00 38 1017.6
20260509161103 17 274 1.6 4.8 0.00 0.00 0.00 38 1017.6
20260509160104 17 265 0.0 4.8 0.00 0.00 0.00 41 1017.5
20260509155104 16 151 1.6 4.8 0.00 0.00 0.00 43 1017.5
20260509154104 16 272 1.6 4.8 0.00 0.00 0.00 45 1017.6
20260509151103 12 319 1.6 4.8 0.00 0.00 0.00 53 1017.4
20260509150104 11 271 0.0 3.2 0.00 0.00 0.00 57 1017.3
20260509145104 11 304 0.0 0.0 0.00 0.00 0.00 58 1017.1
20260509143104 10 338 0.0 0.0 0.00 0.00 0.00 63 1017.2
20260509142104 10 6 0.0 0.0 0.00 0.00 0.00 63 1017.2
20260509141104 9 13 0.0 3.2 0.00 0.00 0.00 65 1017.1
20260509140103 8 42 0.0 3.2 0.00 0.00 0.00 66 1017.0
20260509135104 8 42 0.0 4.8 0.00 0.00 0.00 65 1017.0
20260509133104 8 108 0.0 4.8 0.00 0.00 0.00 68 1016.9
20260509131104 7 105 1.6 8.0 0.00 0.00 0.00 66 1016.7
20260509130104 7 96 1.6 9.7 0.00 0.00 0.00 66 1016.5
20260509125104 7 96 3.2 9.7 0.00 0.00 0.00 65 1016.5
20260509124104 7 103 3.2 9.7 0.00 0.00 0.00 65 1016.3
20260509123104 7 96 4.8 9.7 0.00 0.00 0.00 64 1016.2
20260509122103 8 116 4.8 8.0 0.00 0.00 0.00 64 1016.1
20260509121103 8 100 1.6 11.3 0.00 0.00 0.00 61 1016.1
20260509114104 8 126 3.2 9.7 0.00 0.00 0.00 59 1015.9
20260509112103 9 84 1.6 9.7 0.00 0.00 0.00 57 1015.8
20260509111103 9 152 3.2 11.3 0.00 0.00 0.00 57 1015.8
20260509110104 8 120 3.2 9.7 0.00 0.00 0.00 59 1015.7
20260509105104 9 102 3.2 11.3 0.00 0.00 0.00 57 1015.7
20260509104108 9 138 0.0 8.0 0.00 0.00 0.00 58 1015.5
20260509103103 9 101 1.6 8.0 0.00 0.00 0.00 56 1015.6
20260509102104 9 86 1.6 4.8 0.00 0.00 0.00 57 1015.5
20260509095104 10 169 0.0 3.2 0.00 0.00 0.00 54 1015.4
20260509094104 10 151 1.6 3.2 0.00 0.00 0.00 53 1015.2
20260509093104 10 183 1.6 4.8 0.00 0.00 0.00 53 1015.0
20260509092104 10 155 1.6 8.0 0.00 0.00 0.00 55 1014.9
20260509090104 10 179 0.0 1.6 0.00 0.00 0.00 56 1014.9
20260509084104 10 171 4.8 4.8 0.00 0.00 0.00 58 1015.0
20260509083104 10 176 0.0 4.8 0.00 0.00 0.00 58 1014.8
20260509082104 11 140 0.0 1.6 0.00 0.00 0.00 59 1014.8
20260509081104 11 133 0.0 1.6 0.00 0.00 0.00 57 1014.8
20260509080104 11 135 1.6 4.8 0.00 0.00 0.00 58 1014.8
20260509075104 11 169 4.8 9.7 0.00 0.00 0.00 59 1014.7
20260509074104 11 158 0.0 3.2 0.00 0.00 0.00 58 1014.6
20260509073104 11 114 0.0 1.6 0.00 0.00 0.00 56 1014.4
20260509072104 11 104 0.0 3.2 0.00 0.00 0.00 55 1014.3
20260509071103 12 186 0.0 1.6 0.00 0.00 0.00 54 1014.1
20260509064103 12 65 1.6 3.2 0.00 0.00 0.00 54 1013.6
20260509063104 12 167 1.6 4.8 0.00 0.00 0.00 54 1013.5
20260509061104 12 155 0.0 3.2 0.00 0.00 0.00 53 1013.4
20260509060104 13 163 0.0 4.8 0.00 0.00 0.00 52 1013.2
20260509055104 13 125 1.6 4.8 0.00 0.00 0.00 51 1013.0
20260509054104 14 107 0.0 4.8 0.00 0.00 0.00 50 1012.9
20260509053103 14 127 0.0 1.6 0.00 0.00 0.00 49 1012.9
20260509052105 15 165 0.0 4.8 0.00 0.00 0.00 48 1012.7
20260509051104 15 162 0.0 3.2 0.00 0.00 0.00 48 1012.4
20260509050104 15 151 1.6 4.8 0.00 0.00 0.00 47 1012.4
20260509045104 15 165 3.2 4.8 0.00 0.00 0.00 45 1012.3
20260509044104 16 169 1.6 3.2 0.00 0.00 0.00 43 1012.0
20260509043104 16 172 3.2 4.8 0.00 0.00 0.00 42 1011.8
20260509042103 16 165 1.6 3.2 0.00 0.00 0.00 41 1011.7
20260509041104 17 170 3.2 4.8 0.00 0.00 0.00 40 1011.5
20260509034103 19 157 0.0 4.8 0.00 0.00 0.00 35 1011.0
20260509033104 20 103 0.0 3.2 0.00 0.00 0.00 33 1010.7
20260509032104 21 99 0.0 3.2 0.00 0.00 0.00 30 1010.7
20260509031104 21 17 1.6 3.2 0.00 0.00 0.00 28 1010.6
20260509030104 22 5 0.0 3.2 0.00 0.00 0.00 27 1010.4
20260509025103 22 5 0.0 4.8 0.00 0.00 0.00 26 1010.2
20260509024104 23 22 1.6 3.2 0.00 0.00 0.00 26 1010.0
20260509023104 23 0 1.6 4.8 0.00 0.00 0.00 25 1009.9
20260509021104 24 341 3.2 4.8 0.00 0.00 0.00 24 1009.9
20260509020104 24 354 1.6 4.8 0.00 0.00 0.00 24 1009.8
20260509015104 25 353 4.8 9.7 0.00 0.00 0.00 22 1009.9
20260509014104 25 348 3.2 4.8 0.00 0.00 0.00 21 1009.9
20260509013103 25 346 1.6 8.0 0.00 0.00 0.00 22 1009.8
20260509005104 26 345 4.8 9.7 0.00 0.00 0.00 19 1009.9
20260509004103 26 348 3.2 9.7 0.00 0.00 0.00 19 1010.0
20260509003103 26 340 4.8 9.7 0.00 0.00 0.00 21 1010.0
20260509002104 25 338 6.4 9.7 0.00 0.00 0.00 21 1010.1
20260509001104 25 353 4.8 9.7 0.00 0.00 0.00 21 1010.2
20260509000104 25 353 4.8 12.9 0.00 0.00 0.00 20 1010.2
20260508235104 26 356 4.8 14.5 0.00 0.00 0.00 20 1010.3